Probability
9 9 13 16 13 8 4 1 0 0 0 0 0 0 0 0 0 0 0 0 0 0 0 0 0 0 0 0 0 0 0 0 0 0 0 0 0 0 0 0 0 0 0
10 10 12 15 13 9 4 2 1 0 0 0 0 0 0 0 0 0 0 0 0 0 0 0 0 0 0 0 0 0 0 0 0 0 0 0 0 0 0 0 0 0 0
15 13 13 15 13 9 6 4 2 1 0 0 0 0 0 0 0 0 0 0 0 0 0 0 0 0 0 0 0 0 0 0 0 0 0 0 0 0 0 0 0 0 0
20 17 15 16 13 9 6 6 4 1 0 0 0 0 0 0 0 0 0 0 0 0 0 0 0 0 0 0 0 0 0 0 0 0 0 0 0 0 0 0 0 0 0
24 21 19 18 14 9 7 6 5 2 0 0 0 0 0 0 0 0 0 0 0 0 0 0 0 0 0 0 0 0 0 0 0 0 0 0 0 0 0 0 0 0 0
30 26 22 20 15 10 8 7 5 3 1 0 0 0 0 0 0 0 0 0 0 0 0 0 0 0 0 0 0 0 0 0 0 0 0 0 0 0 0 0 0 0 0
35 28 23 21 16 11 9 7 6 4 2 0 0 0 0 0 0 0 0 0 0 0 0 0 0 0 0 0 0 0 0 0 0 0 0 0 0 0 0 0 0 0 0
39 30 23 19 15 11 8 6 5 4 3 1 0 0 0 0 0 0 0 0 0 0 0 0 0 0 0 0 0 0 0 0 0 0 0 0 0 0 0 0 0 0 0
39 32 24 19 14 9 7 5 4 3 3 2 1 0 0 0 0 0 0 0 0 0 0 0 0 0 0 0 0 0 0 0 0 0 0 0 0 0 0 0 0 0 0
35 32 27 21 14 9 7 5 3 2 2 2 1 0 1 0 0 0 0 0 0 0 0 0 0 0 0 0 0 0 0 0 0 0 0 0 0 0 0 0 0 0 0
30 29 26 20 13 9 6 4 3 2 1 1 1 0 0 0 0 0 0 0 1 0 0 0 0 0 0 0 0 0 0 0 0 0 0 0 0 0 0 0 0 0 0
26 24 19 14 10 8 6 4 3 2 1 1 1 0 0 0 0 0 0 0 0 0 0 0 0 0 0 0 0 0 0 0 0 0 0 0 0 0 0 0 0 0 0
26 21 14 8 6 5 5 3 2 1 0 1 1 0 0 0 0 0 0 0 0 0 0 0 0 0 0 0 0 0 0 0 0 0 0 0 0 0 0 0 0 0 0
29 24 14 7 4 4 3 1 1 0 0 0 0 0 0 0 0 0 0 0 0 0 0 0 1 0 0 0 0 0 0 0 0 0 0 0 0 0 0 0 0 0 0
30 25 16 8 4 4 2 0 0 0 0 0 0 0 0 0 0 0 0 0 0 0 0 0 0 0 0 0 0 0 0 0 0 0 0 0 0 0 0 0 0 0 0
28 24 16 10 6 4 2 1 0 0 0 0 0 0 0 0 0 0 0 0 0 0 0 0 0 0 0 0 0 0 0 0 0 0 0 0 0 0 0 0 1 1 0
27 23 17 14 9 5 3 1 0 0 0 0 0 0 0 0 0 0 0 0 0 0 0 0 0 0 0 0 0 0 0 0 0 0 0 0 0 0 0 0 1 1 1
26 24 22 18 11 5 3 1 0 0 0 0 0 0 0 0 0 0 0 0 0 0 0 0 0 0 0 0 0 0 0 0 0 0 0 0 0 0 0 0 1 1 0
23 26 27 21 12 7 5 3 1 1 1 1 1 1 1 0 0 0 0 0 0 0 0 0 0 0 0 0 0 0 0 0 0 0 0 0 0 0 0 0 0 0 0
21 25 27 22 13 10 10 8 4 2 2 2 2 3 2 1 0 0 0 0 0 0 0 0 0 0 0 0 0 0 0 0 0 0 0 0 0 0 0 0 0 0 0
20 22 23 20 15 13 13 11 6 3 3 3 3 2 1 0 0 0 0 0 0 0 0 0 0 0 0 0 0 0 0 0 0 0 0 0 0 0 0 0 0 0 0
18 19 20 20 18 15 13 9 6 3 3 3 2 1 0 0 0 0 0 0 0 0 0 0 0 0 0 0 0 0 0 0 0 0 0 0 0 0 0 0 0 0 0
16 17 19 19 19 16 11 8 5 3 2 1 1 0 0 0 0 0 0 0 0 0 0 0 0 0 0 0 0 0 0 0 0 0 0 0 0 0 0 0 0 0 0
14 15 17 18 18 14 10 8 5 2 1 0 0 0 0 0 0 0 0 0 0 0 0 0 0 0 0 0 0 0 0 0 0 0 0 0 0 0 0 0 0 0 0
11 13 15 15 15 13 10 7 4 1 0 0 0 0 0 0 0 0 0 0 0 0 0 0 0 0 0 0 0 0 0 0 0 0 0 0 0 0 0 0 0 0 0
9 11 13 12 12 12 9 5 3 1 0 0 0 0 0 0 0 0 0 0 0 0 0 0 0 0 0 0 0 0 0 0 0 0 0 0 0 0 0 0 0 0 0
Wind_Speed
10 12 19 20 20 19 19 18 18 18 18 18 18 17 17 16 16 16 15 15 14 14 14 14 14 14 14 14 14 14 14 14 14 14 14 15 14 15 16 16 15 11 16
14 14 20 20 20 19 19 18 18 17 17 17 17 17 16 16 15 15 15 14 14 14 14 13 13 14 13 13 13 13 14 14 14 14 14 13 13 14 15 15 14 10 15
17 14 17 20 20 19 19 18 18 17 17 16 16 16 15 15 15 15 14 14 14 14 13 13 13 13 13 12 12 12 12 13 14 14 13 7 9 14 15 15 15 15 15
17 13 15 21 20 20 19 18 17 17 17 16 16 15 15 15 14 14 14 14 13 13 13 13 12 12 12 11 11 10 10 10 12 12 6 5 7 14 15 15 15 14 14
14 12 16 22 21 20 19 18 17 17 16 16 15 15 14 14 14 14 13 13 13 12 12 12 11 11 10 10 9 8 8 8 9 9 6 5 6 12 14 14 14 14 13
13 12 16 21 21 20 19 18 17 17 16 15 15 14 14 14 13 13 13 12 12 12 12 11 10 9 9 8 7 7 7 8 9 7 6 5 5 11 14 14 13 13 13
13 11 14 21 20 19 19 18 17 17 16 15 15 14 14 13 13 13 12 12 11 11 11 10 9 8 7 7 7 7 7 9 7 6 5 5 6 11 13 13 13 12 12
15 11 13 20 20 19 18 18 17 17 16 15 14 14 13 13 12 12 12 11 11 11 10 9 8 7 6 6 6 6 7 7 8 8 5 5 9 11 12 12 12 12 12
14 12 9 11 14 18 18 17 17 16 15 15 14 13 13 12 12 12 11 11 10 10 9 8 7 6 5 4 4 6 7 8 6 4 7 4 10 12 12 12 12 12 11
11 11 9 8 8 8 11 17 17 16 15 14 14 13 12 11 11 11 10 10 10 9 9 8 6 5 3 2 3 5 7 7 4 4 4 5 11 12 13 12 12 11 11
11 9 9 8 7 7 8 12 13 14 14 12 11 12 10 4 4 6 8 9 9 8 8 7 6 5 3 0 1 4 5 3 4 4 3 9 12 13 13 12 11 11 11
12 10 9 9 9 8 8 7 4 5 6 5 4 5 4 3 3 5 6 8 8 7 6 6 5 3 2 0 1 3 2 3 3 3 4 11 12 13 13 12 12 11 11
13 12 10 9 9 8 6 6 3 3 3 4 4 4 3 3 2 3 2 2 3 4 2 2 2 1 1 1 1 2 3 3 2 2 5 11 12 13 13 12 12 12 11
12 12 10 9 8 7 7 6 5 4 3 3 4 5 4 3 3 2 2 2 1 1 1 1 1 1 1 1 2 3 3 2 2 2 4 11 11 12 12 12 12 12 12
11 11 11 10 9 8 7 5 6 4 4 4 3 4 4 3 3 3 2 2 2 2 2 1 1 1 1 0 2 3 4 4 4 3 3 10 11 11 12 12 12 12 12
10 10 9 10 9 8 7 5 5 5 4 4 3 4 4 4 4 3 2 2 1 2 2 2 2 1 1 1 1 2 3 3 4 4 3 5 10 11 11 12 12 12 11
11 10 10 10 9 9 8 7 6 5 5 4 4 4 4 4 4 4 3 2 1 2 2 2 1 1 1 1 1 1 2 3 4 4 4 3 4 8 11 11 12 12 11
11 10 11 11 10 9 7 6 5 5 5 4 3 3 4 5 5 4 3 2 2 2 2 2 2 2 1 1 0 1 1 2 4 4 4 3 3 3 7 11 11 11 11
10 10 9 9 10 9 8 6 5 5 5 4 3 3 4 4 5 4 3 2 3 3 2 2 2 1 1 0 1 1 1 2 3 4 4 4 4 3 3 6 9 10 11
9 9 9 8 8 8 6 5 4 5 4 3 3 4 5 4 5 4 3 3 4 3 2 2 2 2 1 0 1 1 1 1 1 2 3 3 3 4 3 3 3 5 9
9 9 9 9 8 6 5 5 5 4 4 3 3 5 5 5 5 5 4 3 3 3 2 2 2 3 2 1 2 3 3 2 0 1 1 2 2 3 3 3 2 2 3
10 9 9 9 9 7 5 4 4 5 4 3 3 4 5 5 5 5 5 3 3 3 4 3 3 2 2 2 2 2 3 4 3 2 0 1 1 1 2 3 3 3 2
10 10 10 9 9 8 7 5 5 4 4 3 3 3 3 5 5 5 5 4 4 3 3 3 3 3 2 2 2 3 3 1 2 3 2 1 1 1 1 1 3 3 3
11 10 9 9 9 8 8 8 9 6 5 4 3 3 3 4 5 5 5 5 4 3 3 3 3 3 3 2 2 2 2 3 2 1 3 3 2 1 2 2 2 3 3
10 10 9 9 8 8 7 9 8 6 4 4 4 5 3 3 4 5 5 5 4 3 4 4 4 3 3 2 2 2 3 3 2 3 1 3 3 3 2 2 2 2 2
9 9 9 9 8 8 8 8 9 9 7 7 5 5 3 2 2 4 5 5 4 3 3 4 4 4 3 3 2 2 2 2 1 2 1 1 2 3 3 2 2 1 2
Wind_Direction
151 152 143 137 132 128 124 120 116 113 111 108 106 105 104 105 105 105 105 104 103 102 101 101 102 102 102 102 103 106 109 110 110 110 111 112 114 115 113 112 109 107 111
148 150 143 139 135 132 128 125 122 119 116 113 111 110 108 108 108 108 107 106 104 104 103 103 103 103 102 102 103 106 108 110 109 108 107 109 112 115 114 114 112 115 114
143 146 143 140 138 135 133 130 127 124 121 119 116 115 113 112 112 111 109 107 106 105 105 105 104 103 103 102 102 104 107 110 110 108 106 100 107 114 115 114 114 115 116
142 143 144 142 141 139 136 134 131 129 126 124 121 119 117 116 116 114 114 112 110 109 108 107 107 105 103 101 100 101 105 110 118 113 106 102 109 115 116 115 116 117 117
140 141 147 144 143 141 139 137 135 134 131 129 126 124 121 119 118 117 116 116 115 113 112 110 108 105 102 99 95 95 100 108 121 116 107 99 105 119 119 120 120 119 120
138 141 147 145 144 143 142 140 138 137 136 133 131 129 126 125 123 121 119 118 117 115 114 112 109 106 101 94 86 82 94 112 114 114 115 113 114 124 124 123 123 122 122
138 142 146 146 146 146 144 143 141 140 139 137 135 133 132 130 129 126 125 123 123 121 119 117 114 108 100 88 77 71 84 114 119 122 122 118 122 127 126 126 125 125 124
139 139 145 148 148 147 146 146 145 145 143 141 139 139 138 135 134 133 132 130 130 129 128 125 122 113 100 86 72 62 69 108 124 133 127 126 134 132 130 129 130 130 129
138 139 142 148 150 151 150 149 148 147 146 145 144 144 142 141 140 141 140 139 138 137 137 135 132 122 104 87 69 60 68 101 115 133 140 138 142 140 137 136 135 134 134
139 140 140 142 144 146 149 151 151 150 150 149 148 149 147 148 147 147 147 149 147 146 147 146 144 136 121 93 74 74 77 98 119 138 140 154 151 148 145 144 142 140 141
143 144 145 145 143 143 148 155 153 152 152 150 150 151 144 136 138 145 154 154 154 155 157 157 158 158 153 114 74 91 84 101 122 135 153 163 159 156 153 151 149 148 148
156 157 157 154 153 152 156 145 147 146 142 136 135 136 132 138 151 149 162 162 160 162 163 169 175 178 162 45 43 90 103 123 130 146 169 170 166 163 161 159 158 158 157
159 160 162 161 159 157 143 147 148 137 133 133 140 141 139 138 145 137 137 156 159 158 147 165 169 163 152 142 110 123 136 136 152 161 174 174 171 170 169 168 167 167 166
158 158 158 161 159 155 148 154 153 147 146 149 155 151 141 137 139 142 142 150 148 143 148 142 148 175 175 155 137 144 146 154 164 152 183 181 178 179 178 177 176 176 175
156 156 157 159 156 154 151 158 156 155 158 157 152 151 145 141 144 142 145 154 164 155 158 161 161 159 166 149 138 144 155 164 166 171 191 191 188 186 185 185 185 186 185
159 159 158 157 154 151 152 155 152 154 154 145 142 147 142 139 139 137 141 147 159 162 151 147 159 149 146 151 145 144 153 163 172 177 195 200 200 195 192 192 193 194 194
160 161 158 157 153 150 150 153 148 152 147 144 145 142 135 132 135 135 131 129 144 139 125 107 104 92 96 103 129 151 154 171 179 185 194 203 207 207 203 199 197 198 200
158 165 165 159 154 150 147 143 143 145 142 144 142 132 128 130 131 123 117 116 115 102 105 104 85 82 61 64 358 242 182 185 188 188 194 204 204 206 213 211 208 205 207
165 165 161 149 153 148 139 136 138 138 137 138 130 123 126 128 124 115 111 109 103 89 85 94 87 104 86 21 269 240 210 199 194 189 190 198 199 200 205 217 217 214 215
165 158 149 146 147 135 126 121 117 120 125 127 125 128 126 124 119 113 108 101 96 88 73 68 73 68 91 21 356 11 334 233 196 194 195 194 192 199 204 208 212 223 222
160 157 152 152 149 138 135 136 133 136 135 129 132 130 125 122 117 110 106 96 93 93 87 76 74 56 31 40 58 15 356 356 303 221 200 192 202 202 193 199 201 207 222
166 162 159 158 153 150 150 145 139 135 133 131 122 118 120 120 122 116 113 107 99 92 74 60 69 70 25 41 101 82 21 359 350 360 313 203 216 206 201 205 202 206 212
167 168 167 160 154 152 146 128 119 103 95 97 110 115 122 122 118 115 116 111 102 101 97 78 77 91 62 17 63 125 126 195 320 341 352 4 309 245 244 225 210 210 209
176 169 161 158 157 155 146 142 147 148 149 162 155 144 132 126 123 123 118 113 110 105 103 90 82 90 93 48 15 40 112 151 133 1 338 343 346 332 276 250 228 216 207
171 165 163 157 155 154 150 148 148 146 145 139 131 129 123 117 123 127 123 117 116 109 106 94 88 85 91 94 65 42 48 50 74 120 348 332 341 328 312 279 255 243 219
163 161 160 156 154 154 150 149 149 150 146 141 139 139 131 112 109 124 122 121 124 118 114 110 107 100 95 93 85 78 90 85 71 106 126 320 321 312 323 324 310 268 225